Regional Weather Roundup
Issued by NWS

Home | Current Version | Previous Version | Graphics & Text | Print | Product List | Glossary On
Versions: 1 2 3 4 5 6 7 8 9 10 11 12 13 14 15 16 17 18 19 20 21 22 23 24 25 26 27 28 29 30 31 32 33 34 35 36 37 38 39 40 41 42 43 44 45 46 47 48 49 50
000
ASUS43 KLMK 301810
RWRKY
KENTUCKY REGIONAL WEATHER ROUNDUP
NATIONAL WEATHER SERVICE LOUISVILLE KY
200 PM EDT THU OCT 30 2014

NOTE "FAIR" INDICATES FEW OR NO CLOUDS BELOW 12,000 FEET
WITH NO SIGNIFICANT WEATHER AND/OR OBSTRUCTIONS TO VISIBILITY.

KYZ001>023-026-027-061>063-070>075-301900-
WESTERN AND SOUTH CENTRAL KENTUCKY

CITY           SKY/WX    TMP DP  RH WIND       PRES   REMARKS
PADUCAH        SUNNY     60  38  43 CALM      30.12F
HENDERSON      PTSUNNY   57  37  47 CALM      30.12F
OWENSBORO      SUNNY     57  39  51 W6        30.14F
HOPKINSVILLE   SUNNY     58  38  48 CALM      30.12F
BOWLING GREEN  SUNNY     56  37  49 CALM      30.12F
GLASGOW        SUNNY     56  37  47 CALM      30.11F
$$

KYZ024-025-028>034-038-045-046-053-301900-
NORTH CENTRAL KENTUCKY

CITY           SKY/WX    TMP DP  RH WIND       PRES   REMARKS
LOUISVILLE/SDF MOSUNNY   54  35  48 VRB5      30.12F
LOUISVILLE/LOU SUNNY     52  35  52 S3        30.12F
FORT KNOX      MOSUNNY   54  36  52 E5        30.10F
$$

KYZ035>037-039>044-047>052-055>060-089>105-301900-
NORTHEAST KENTUCKY

CITY           SKY/WX    TMP DP  RH WIND       PRES   REMARKS
LEXINGTON      MOSUNNY   54  36  50 VRB7      30.12F
COVINGTON      MOSUNNY   51  33  50 CALM      30.11F
FRANKFORT      SUNNY     51  34  52 S5        30.11F
$$

KYZ054-064>069-076>088-106>120-301900-
SOUTHEAST KENTUCKY

CITY           SKY/WX    TMP DP  RH WIND       PRES   REMARKS
JACKSON        CLOUDY    51  34  52 VRB3      30.10F
LONDON         SUNNY     54  36  50 VRB5      30.09F
SOMERSET       SUNNY     52  36  54 CALM      30.11F
MIDDLESBORO    SUNNY     57  38  50 N3        30.07F
MONTICELLO     CLEAR     58  37  45 VRB5      30.11F
$$




USA.gov is the U.S. government's official web portal to all federal, state and local government web resources and services.